Regional Weather Roundup
Issued by NWS

Home | Current Version | Previous Version | Text Only | Print | Product List | Glossary Off
Versions: 1 2 3 4 5 6 7 8 9 10 11 12 13 14 15 16 17 18 19 20 21 22 23 24 25 26 27 28 29 30 31 32 33 34 35 36 37 38 39 40 41 42 43 44 45 46 47 48 49 50

000
ASUS43 KBIS 300831
RWRND
NORTH DAKOTA REGIONAL WEATHER ROUNDUP
NATIONAL WEATHER SERVICE EASTERN NORTH DAKOTA/GRAND FORKS ND
300 AM CDT TUE MAY 30 2017

  NOTE: "FAIR" INDICATES FEW OR NO CLOUDS BELOW 12,000 FEET WITH NO
  SIGNIFICANT WEATHER AND/OR OBSTRUCTIONS TO VISIBILITY.

NDZ001>003-009>011-017-300900-
...NORTHWEST NORTH DAKOTA...

CITY           SKY/WX    TMP DP  RH WIND       PRES   REMARKS
WILLISTON      FAIR      40  29  64 CALM      30.08R
MINOT          FAIR      45  39  79 W12       30.04R
MINOT AFB      FAIR      40  37  90 NW9       30.04R WCI  33
$$

NDZ018>021-031>035-040>046-300900-
...SOUTHWEST NORTH DAKOTA...

CITY           SKY/WX    TMP DP  RH WIND       PRES   REMARKS
BISMARCK       FAIR      41  36  82 CALM      30.04S
DICKINSON      FAIR      39  28  64 NW8       30.05R WCI  33
GARRISON         N/A     38  34  85 NW7       30.04R WCI  33
HETTINGER      FAIR      34  28  79 W3        30.09R
$$

NDZ004>008-012>016-024-026-027-054-300900-
...NORTHEAST NORTH DAKOTA...

CITY           SKY/WX    TMP DP  RH WIND       PRES   REMARKS
GRAND FORKS    CLOUDY    49  43  80 NW14      29.91S
GRAND FORKS AF CLOUDY    47  43  84 NW8       29.92S
DEVILS LAKE    LGT RAIN  47  41  80 NW13      29.97S
$$

NDZ022-023-025-028>030-036>039-047>053-300900-
...SOUTHEAST NORTH DAKOTA...

CITY           SKY/WX    TMP DP  RH WIND       PRES   REMARKS
JAMESTOWN      FAIR      46  40  79 NW12      29.96S
FARGO          CLOUDY    49  43  80 NW10      29.92S
WAHPETON       FAIR      46  43  87 NW6       29.93S
$$



USA.gov is the U.S. government's official web portal to all federal, state and local government web resources and services.